Regional Weather Roundup
Issued by NWS Upton, NY

Current Version | Previous Version | Text Only | Print | Product List | Glossary On
Versions: 1 2 3 4 5 6 7 8 9 10 11 12 13 14 15 16 17 18 19 20 21 22 23 24 25 26 27 28 29 30 31 32 33 34 35 36 37 38 39 40 41 42 43 44 45 46 47 48 49 50
000
ASUS41 KOKX 012104
RWROKX

REGIONAL WEATHER ROUNDUP
NATIONAL WEATHER SERVICE NEW YORK NY
500 PM EDT SAT AUG 01 2015

NOTE: "FAIR" INDICATES FEW OR NO CLOUDS BELOW 12,000 FEET WITH NO
SIGNIFICANT WEATHER AND/OR OBSTRUCTIONS TO VISIBILITY.

NYZ071-072-176-178-NJZ106-104-012200-
NEW YORK CITY METRO AREA


CITY           SKY/WX    TMP DP  RH WIND       PRES   REMARKS
CENTRAL PARK   MOSUNNY   84  57  39 VRB5      29.80R
LAGUARDIA APRT PTSUNNY   89  53  29 W10G22    29.76S
KENNEDY INTL   MOSUNNY   88  56  33 SW20      29.77S
NEWARK/LIBERTY MOSUNNY   89  53  29 W16G25    29.76F
BRNX BOT. GARD   N/A     88  52  29 W15       29.78R
TETERBORO      MOSUNNY   89  53  29 W14G22    29.75S
$$

NYZ177-179-078>081-012200-
LONG ISLAND NEW YORK

CITY           SKY/WX    TMP DP  RH WIND       PRES   REMARKS
FARMINGDALE    SUNNY     89  55  31 SW20G25   29.76F
ISLIP          PTSUNNY   88  57  34 SW17G29   29.74S
SHIRLEY        SUNNY     86  67  52 SW14      29.77R
WESTHAMPTON    MOSUNNY   83  68  60 SW13G21   29.78R
MONTAUK POINT    N/A     83  68  60 SW7       29.77S
$$

NYZ052-065-067-012200-
HUDSON VALLEY

CITY           SKY/WX    TMP DP  RH WIND       PRES   REMARKS
WHITE PLAINS   MOSUNNY   84  56  38 NW15      29.78R
NEWBURGH       PTSUNNY   84  57  39 W16       29.79S
MONTGOMERY     PTSUNNY   83  56  39 NW9       29.78S
POUGHKEEPSIE   PTSUNNY   86  53  32 W9        29.75F
ALBANY         MOSUNNY   83  56  39 W15       29.76S
$$

NJZ001-105-106-008-010-013-015-019>022-104-012200-
NEW JERSEY

CITY           SKY/WX    TMP DP  RH WIND       PRES   REMARKS
NEWARK/LIBERTY MOSUNNY   89  53  29 W16G25    29.76F
TETERBORO      MOSUNNY   89  53  29 W14G22    29.75S
CALDWELL       MOSUNNY   87  55  33 NW10      29.78S
MORRISTOWN     MOSUNNY   86  55  35 W10G20    29.79S
SOMERVILLE     MOSUNNY   87  51  28 NW13G20   29.77S
SUSSEX         MOSUNNY   82  60  47 VRB3      29.80F
ANDOVER          N/A     80  56  43 VRB6      29.82S
TRENTON        SUNNY     90  50  25 W14       29.79F
MILLVILLE      SUNNY     90  56  31 W10       29.83S
ATLANTIC CITY  MOSUNNY   89  61  38 W12       29.81F
WRIGHTSTOWN    NOT AVBL
TOMS RIVER       N/A     90  57  33 W15       29.80S
BELMAR         MOSUNNY   86  57  37 W12G17    29.80S
$$

PAZ047>061-062-071-012200-
EASTERN PENNSYLVANIA

CITY           SKY/WX    TMP DP  RH WIND       PRES   REMARKS
PHILADELPHIA   MOSUNNY   89  55  31 W14       29.82F
ALLENTOWN      PTSUNNY   82  57  42 W10G20    29.82R
SCRANTON       CLOUDY    79  55  43 NW6       29.84S
$$

CTZ002-004>006-009-010-012-RIZ004-006-007-MAZ004-011-015-012200-
SOUTHERN NEW ENGLAND
 IN CT

CITY           SKY/WX    TMP DP  RH WIND       PRES   REMARKS
BRADLEY INTL   MOSUNNY   83  59  44 NW8       29.74F
HARTFORD       MOSUNNY   85  58  39 NW8       29.74F
DANBURY        PTSUNNY   79  61  53 SW6       29.79R
WTRBRY/OXFORD  NOT AVBL
BRIDGEPORT     MOSUNNY   87  62  43 SW12      29.75S
MERIDEN        LGT RAIN  76  68  76 NE7       29.76R
NEW HAVEN      PTSUNNY   82  60  47 NW9G17    29.76R
CHESTER        FAIR      82  61  47 SW7       29.77S
GROTON         MOSUNNY   85  58  39 W9        29.73S
WILLIMANTIC    SUNNY     82  59  45 NW6       29.75S

 IN RI

CITY           SKY/WX    TMP DP  RH WIND       PRES   REMARKS
PROVIDENCE     PTSUNNY   86  58  38 W14G22    29.73R
BLOCK ISLAND     N/A     79  68  69 SW16G24   29.77S
WESTERLY       SUNNY     84  63  49 SW9       29.75S

 IN MA

CITY           SKY/WX    TMP DP  RH WIND       PRES   REMARKS
BOSTON         LGT RAIN  79  57  46 W12       29.73R
WORCESTER      PTSUNNY   73  61  65 W8        29.78F
WESTFIELD      MOSUNNY   83  59  44 NW8       29.75F
PROVINCETOWN   MOSUNNY   81  63  54 SW15G24   29.71F
NANTUCKET      SUNNY     78  71  79 SW15      29.76F
$$

ANZ330-335-338-340-345-350-353-355-012200-
COASTAL MARINE OBSERVATIONS


STATION/POSITION TIME  SKY/WX   TEMP    WIND        PRES    VSBY  WAVE
                                AIR SEA DIR/SP/G                  HT/PER
                 (UTC)          (F)     (DEG/KT/KT) (MB)    (MI)  (FT/S)
NY HARB ENTRANCE 1950            80 78  250/  6/  8 1008.2          3/10
4S FIRE IS       NOT AVBL
20S FIRE ISLAND  1950            78 76  210/ 12/ 14 1008.5          4/ 8
GREAT SOUTH BAY  2000            81 81  230/ 14/ 17   N/A
23SW MTP         2050            76 74  230/ 16/ 17 1007.7          4/10
HUDSON CANYON    NOT AVBL
KINGS POINT      2000            84 72  310/ 12/ 15 1007.1
EXECUTION ROCKS  2000            82     250/  6/ 10   N/A
CENTRAL LI SOUND NOT AVBL
EASTERN LI SOUND 2000            74 68  240/  8/ 12   N/A
ROBBINS REEF     2000            86     280/ 15/ 17 1006.8
$$


>>>>>>>>>>>>>>>>>>>>>>>>>>>> KEY <<<<<<<<<<<<<<<<<<<<<<<<<<<
>                                                          <
>     SKY/WX - SKY CONDITION/PRESENT WEATHER               <
>     TMP    - TEMPERATURE IN FAHRENHEIT                   <
>     DP     - DEWPOINT IN FAHRENHEIT                      <
>     RH     - RELATIVE HUMIDITY IN PERCENT                <
>     WIND   - DIRECTION AND SPEED IN MPH                  <
>     PRES   - MEAN SEA LEVEL PRESSURE IN INCHES OF HG     <
>     WCI    - WIND CHILL INDEX                            <
>     VSB    - VISIBILITY IN MILES                         <
>     HX     - HEAT INDEX                                  <
>     TC     - TEMPERATURE IN CELSIUS                      <
>     VRB    - VARIABLE WIND DIRECTION                     <
>                                                          <
>>>>>>>>>>>>>>>>>>>>>>>>>>>> KEY <<<<<<<<<<<<<<<<<<<<<<<<<<<




USA.gov is the U.S. government's official web portal to all federal, state and local government web resources and services.